Terminal Aerodrome Forecast
Issued by NWS Miami, FL

Home | Current Version | Previous Version | Text Only | Print | Product List | Glossary On
Versions: 1 2 3 4 5 6 7 8 9 10 11 12 13 14 15 16 17 18 19 20 21 22 23 24 25 26 27 28 29 30 31 32 33 34 35 36 37 38 39 40 41 42 43 44 45 46 47 48 49
000
FTUS42 KMFL 221720
TAFAPF
TAF
KAPF 221720Z 2218/2318 19010KT P6SM SCT030 BKN150
     FM222300 11003KT P6SM SCT030 BKN200
     FM230600 00000KT P6SM SCT010 BKN035
     FM231400 15012KT P6SM BKN040=

USA.gov is the U.S. government's official web portal to all federal, state and local government web resources and services.